Location: Newark
(52.2583°N, 7.1190°W)
Time: 15:17:15
(UTC+00:00)

Vanguard 1 Rocket - All Passes

Search period start: 22 November 2019 00:00
Search period end: 02 December 2019 00:00
Orbit: 651 x 4226 km, 34.3° (Epoch: 21 November)

Date Brightness Start Highest point End Pass type
(mag) Time Alt. Az. Time Alt. Az. Time Alt. Az.
29 Nov - 02:05:02 10° SSW 02:06:28 11° S 02:07:47 10° SSE night (unlit)
30 Nov - 00:53:32 10° SSW 00:55:49 12° S 00:57:48 10° SSE night (unlit)
30 Nov - 23:42:34 10° S 23:44:58 11° S 23:47:04 10° SSE night (unlit)
01 Dec - 02:06:39 10° SSW 02:09:06 12° S 02:11:15 10° SSE night (unlit)
